Location: ČR
(50.0000°N, 15.0000°E)
Time: 15:02:49
(UTC+00:00)

Explorer 7 - Pass Details

Date: 28 October 2021
Orbit: 483 x 675 km, 50.3° (Epoch: 27 November)

Event Time Altitude Azimuth Distance (km) Brightness Sun altitude
Rises 17:48:21 0° 201° (SSW) 2,578 10.5 -20.5°
Reaches altitude 10° 17:51:01 10° 182° (S) 1,725 9.3 -21.0°
Enters shadow 17:51:26 12° 177° (S) 1,620 9.1 -21.0°
Maximum altitude 17:53:40 18° 139° (SE) 1,345 - -21.4°
Drops below altitude 10° 17:56:25 10° 96° (E) 1,800 - -21.8°
Sets 17:59:17 0° 77° (ENE) 2,739 - -22.3°
